Location: Dunn (historical)
(35.2693°N, 90.5721°W)
Time: 11:41:06
(UTC+00:00)

ISS - Pass Details

Date: 13 February 2026
Orbit: 416 x 426 km, 51.6° (Epoch: 8 March)

Event Time Altitude Azimuth Distance (km) Brightness Sun altitude
Exits shadow 12:15:13 - 260° (W) 1,560 -1.5 -7.9°
Reaches altitude 10° 12:15:25 10° 262° (W) 1,488 -1.6 -7.8°
Maximum altitude 12:18:23 29° 325° (NW) 791 -2.7 -7.2°
Drops below altitude 10° 12:21:22 10° 28° (NNE) 1,490 -0.7 -6.6°
Sets 12:23:38 0° 40° (NE) 2,355 0.5 -6.2°
